EW0625 Weather Reports


time (UTC)temp
C
wind
direction
speed
KPH
gust
KPH
rain 1hr
cm
rain 24hr
cm
rain mn
cm
humidity
%
barometer
mb
20260510015059 16 329 14.5 25.7 0.00 0.00 0.00 55 1004.9
20260510014538 16 305 6.4 29.0 0.00 0.00 0.00 54 1004.8
20260510014016 17 349 11.3 29.0 0.00 0.00 0.00 54 1004.5
20260510013540 17 325 9.7 29.0 0.00 0.00 0.00 51 1004.3
20260510013018 17 286 11.3 29.0 0.00 0.00 0.00 50 1004.1
20260510012545 17 321 8.0 22.5 0.00 0.00 0.00 51 1003.9
20260510012020 17 323 6.4 14.5 0.00 0.00 0.00 51 1003.5
20260510011543 17 329 3.2 11.3 0.00 0.00 0.00 54 1003.5
20260510011022 17 305 1.6 8.0 0.00 0.00 0.00 58 1003.3
20260510010558 17 298 0.0 6.4 0.00 0.00 0.00 55 1003.0
20260510010022 17 295 0.0 8.0 0.00 0.00 0.00 56 1003.0
20260510005558 17 314 0.0 8.0 0.00 0.00 0.00 56 1002.8
20260510005024 17 294 0.0 6.4 0.00 0.00 0.00 56 1002.7
20260510004605 17 290 0.0 6.4 0.00 0.00 0.00 55 1002.6
20260510004502 17 290 0.0 6.4 0.00 0.00 0.00 55 1002.5
20260510004042 17 290 1.6 9.7 0.00 0.00 0.00 55 1002.6
20260510003558 18 317 0.0 9.7 0.00 0.00 0.00 55 1002.6
20260510003041 18 266 1.6 9.7 0.00 0.00 0.00 55 1002.4
20260510002558 18 257 0.0 9.7 0.00 0.00 0.00 54 1002.3
20260510002042 18 290 0.0 8.0 0.00 0.00 0.00 54 1002.2
20260510001600 18 305 0.0 8.0 0.00 0.00 0.00 54 1002.2
20260510001505 18 303 0.0 8.0 0.00 0.00 0.00 54 1002.2
20260510001042 18 303 0.0 8.0 0.00 0.00 0.00 54 1002.2
20260510000559 18 298 0.0 6.4 0.00 0.00 0.00 53 1002.0
20260510000039 18 297 1.6 8.0 0.00 0.00 0.00 53 1002.1
20260509235559 18 318 1.6 8.0 0.00 0.00 0.00 52 1002.1
20260509235041 18 289 0.0 11.3 0.00 0.00 0.00 52 1002.1
20260509234556 18 288 1.6 11.3 0.00 0.00 0.00 52 1002.0
20260509234038 19 313 0.0 9.7 0.00 0.00 0.00 50 1002.0
20260509233520 19 266 3.2 14.5 0.00 0.00 0.00 50 1001.9
20260509233051 19 293 3.2 11.3 0.00 0.00 0.00 50 1001.9
20260509232528 19 284 0.0 11.3 0.00 0.00 0.00 49 1002.1
20260509232048 19 331 1.6 16.1 0.00 0.00 0.00 49 1001.8
20260509231531 19 300 1.6 16.1 0.00 0.00 0.00 48 1001.9
20260509231046 19 291 3.2 14.5 0.00 0.00 0.00 47 1001.9
20260509230522 20 321 1.6 22.5 0.00 0.00 0.00 47 1002.0
20260509230044 20 232 3.2 22.5 0.00 0.00 0.00 46 1002.0
20260509225524 20 271 8.0 20.9 0.00 0.00 0.00 45 1001.9
20260509225044 20 300 4.8 20.9 0.00 0.00 0.00 45 1001.8
20260509224523 20 241 8.0 14.5 0.00 0.00 0.00 45 1001.8
20260509224100 20 323 6.4 19.3 0.00 0.00 0.00 44 1001.8
20260509224002 20 260 3.2 19.3 0.00 0.00 0.00 46 1001.8
20260509223522 20 296 6.4 20.9 0.00 0.00 0.00 44 1002.0
20260509223101 20 263 6.4 25.7 0.00 0.00 0.00 44 1001.9
20260509222520 20 261 8.0 33.8 0.00 0.00 0.00 44 1001.8
20260509222058 20 303 9.7 27.4 0.00 0.00 0.00 44 1001.8
20260509222006 20 223 6.4 27.4 0.00 0.00 0.00 43 1001.8
20260509221527 20 235 4.8 29.0 0.00 0.00 0.00 44 1001.7
20260509221003 20 293 12.9 29.0 0.00 0.00 0.00 44 1001.8
20260509220526 20 282 6.4 24.1 0.00 0.00 0.00 45 1001.5
20260509220006 20 266 8.0 24.1 0.00 0.00 0.00 42 1001.6
20260509215540 20 315 8.0 29.0 0.00 0.00 0.00 42 1001.6
20260509215018 21 321 8.0 22.5 0.00 0.00 0.00 42 1001.6
20260509214540 21 313 8.0 20.9 0.00 0.00 0.00 43 1001.5
20260509214016 21 282 6.4 24.1 0.00 0.00 0.00 41 1001.6
20260509213538 20 218 9.7 32.2 0.00 0.00 0.00 41 1001.6
20260509213016 20 301 11.3 38.6 0.00 0.00 0.00 38 1001.5
20260509212537 21 306 12.9 38.6 0.00 0.00 0.00 39 1001.4
20260509212016 21 223 8.0 27.4 0.00 0.00 0.00 42 1001.4
20260509211539 21 317 9.7 27.4 0.00 0.00 0.00 42 1001.4
20260509211019 20 253 3.2 29.0 0.00 0.00 0.00 42 1001.2
20260509210539 20 297 8.0 29.0 0.00 0.00 0.00 41 1001.3
20260509210017 20 211 12.9 43.5 0.00 0.00 0.00 41 1001.2
20260509205538 20 313 9.7 29.0 0.00 0.00 0.00 40 1001.3
20260509205023 20 269 8.0 33.8 0.00 0.00 0.00 44 1001.2
20260509204556 20 244 11.3 33.8 0.00 0.00 0.00 47 1001.4
20260509204021 20 265 11.3 30.6 0.00 0.00 0.00 49 1001.4
20260509203558 20 292 4.8 33.8 0.00 0.00 0.00 54 1001.4
20260509203019 20 321 14.5 33.8 0.00 0.00 0.00 53 1001.4
20260509202558 20 299 11.3 24.1 0.00 0.00 0.00 53 1001.4
20260509202020 20 270 9.7 27.4 0.00 0.00 0.00 55 1001.5
20260509201557 20 314 6.4 19.3 0.00 0.00 0.00 59 1001.5
20260509201040 20 265 8.0 17.7 0.00 0.00 0.00 59 1001.5
20260509200556 20 306 8.0 27.4 0.00 0.00 0.00 58 1001.7
20260509200045 20 346 9.7 27.4 0.00 0.00 0.00 59 1001.8
20260509195518 20 309 9.7 22.5 0.00 0.00 0.00 61 1001.6
20260509195053 20 327 9.7 32.2 0.00 0.00 0.00 57 1001.5
20260509194515 20 329 11.3 32.2 0.00 0.00 0.00 58 1001.7
20260509194050 20 289 12.9 29.0 0.00 0.00 0.00 58 1001.5
20260509193514 20 233 3.2 25.7 0.00 0.00 0.00 59 1001.4
20260509193046 20 287 9.7 25.7 0.00 0.00 0.00 57 1001.5
20260509192529 19 289 6.4 25.7 0.00 0.00 0.00 58 1001.4
20260509192046 19 303 3.2 20.9 0.00 0.00 0.00 57 1001.5
20260509191528 19 271 9.7 20.9 0.00 0.00 0.00 57 1001.5
20260509191100 19 237 6.4 24.1 0.00 0.00 0.00 57 1001.5
20260509191003 19 225 8.0 24.1 0.00 0.00 0.00 58 1001.4
20260509190545 20 288 9.7 24.1 0.00 0.00 0.00 55 1001.3
20260509190022 20 225 8.0 22.5 0.00 0.00 0.00 58 1001.2
20260509185547 20 280 4.8 24.1 0.00 0.00 0.00 59 1001.2
20260509185031 20 299 11.3 24.1 0.00 0.00 0.00 58 1001.3
20260509184550 20 244 6.4 19.3 0.00 0.00 0.00 59 1001.4
20260509184029 20 294 6.4 25.7 0.00 0.00 0.00 59 1001.4
20260509183551 20 218 6.4 25.7 0.00 0.00 0.00 59 1001.4
20260509183031 20 236 11.3 25.7 0.00 0.00 0.00 60 1001.3
20260509182509 20 315 9.7 25.7 0.00 0.00 0.00 59 1001.3
20260509182031 20 271 11.3 25.7 0.00 0.00 0.00 59 1001.4
20260509181515 20 276 6.4 29.0 0.00 0.00 0.00 59 1001.5
20260509181041 20 254 12.9 29.0 0.00 0.00 0.00 59 1001.4
20260509180524 19 257 11.3 29.0 0.00 0.00 0.00 60 1001.5
20260509180052 20 259 8.0 32.2 0.00 0.00 0.00 58 1001.5
20260509175534 20 248 6.4 32.2 0.00 0.00 0.00 57 1001.6
20260509175011 20 298 8.0 30.6 0.00 0.00 0.00 58 1001.5
20260509174533 20 238 9.7 30.6 0.00 0.00 0.00 57 1001.5
20260509174015 20 222 14.5 32.2 0.00 0.00 0.00 54 1001.3
20260509173531 20 260 16.1 32.2 0.00 0.00 0.00 54 1001.3
20260509173041 20 223 12.9 29.0 0.00 0.00 0.00 55 1001.2
20260509172547 20 221 8.0 29.0 0.00 0.00 0.00 57 1001.2
20260509172024 20 257 12.9 29.0 0.00 0.00 0.00 58 1001.4
20260509171544 20 275 11.3 25.7 0.00 0.00 0.00 56 1001.3
20260509171023 20 227 9.7 20.9 0.00 0.00 0.00 59 1001.4
20260509170603 20 265 9.7 27.4 0.00 0.00 0.00 61 1001.4
20260509170502 19 239 8.0 27.4 0.00 0.00 0.00 61 1001.4
20260509170024 19 272 6.4 27.4 0.00 0.00 0.00 59 1001.6
20260509165557 20 184 9.7 29.0 0.00 0.00 0.00 60 1001.5
20260509165039 19 217 9.7 29.0 0.00 0.00 0.00 62 1001.6
20260509164603 19 216 11.3 27.4 0.00 0.00 0.00 60 1001.6
20260509164039 19 230 4.8 24.1 0.00 0.00 0.00 64 1001.6
20260509163515 18 224 12.9 29.0 0.00 0.00 0.00 63 1001.5
20260509163037 18 192 12.9 27.4 0.00 0.00 0.00 61 1001.5
20260509162520 18 281 9.7 27.4 0.00 0.00 0.00 63 1001.5
20260509162055 18 272 8.0 24.1 0.00 0.00 0.00 65 1001.3
20260509161515 18 229 9.7 24.1 0.00 0.00 0.00 64 1001.7
20260509161053 18 232 6.4 24.1 0.00 0.00 0.00 67 1001.7
20260509160515 17 249 9.7 27.4 0.00 0.00 0.00 65 1001.6
20260509160051 17 255 11.3 27.4 0.00 0.00 0.00 65 1001.8
20260509155516 17 183 8.0 22.5 0.00 0.00 0.00 66 1001.9
20260509155051 17 260 8.0 27.4 0.00 0.00 0.00 66 1002.0
20260509154533 17 248 8.0 27.4 0.00 0.00 0.00 66 1002.0
20260509154053 17 265 8.0 22.5 0.00 0.00 0.00 67 1001.9
20260509153533 17 243 6.4 22.5 0.00 0.00 0.00 67 1001.7
20260509153018 17 140 3.2 25.7 0.00 0.00 0.00 70 1001.8
20260509152042 17 267 1.6 16.1 0.00 0.00 0.00 73 1001.9
20260509151625 16 128 3.2 16.1 0.00 0.00 0.00 71 1001.9
20260509151501 16 182 4.8 16.1 0.00 0.00 0.00 73 1001.9
20260509151043 16 40 4.8 22.5 0.00 0.00 0.00 72 1001.9
20260509150517 16 144 6.4 22.5 0.00 0.00 0.00 71 1002.0
20260509150045 16 84 4.8 19.3 0.00 0.00 0.00 72 1002.0
20260509145515 16 178 1.6 25.7 0.00 0.00 0.00 74 1001.9
20260509145037 16 227 4.8 25.7 0.00 0.00 0.00 76 1002.0
20260509144519 16 203 3.2 17.7 0.00 0.00 0.00 77 1002.2
20260509144055 15 209 3.2 24.1 0.00 0.00 0.00 77 1002.2
20260509143522 15 209 6.4 24.1 0.00 0.00 0.00 78 1002.3
20260509143104 15 134 3.2 11.3 0.00 0.00 0.00 81 1002.3
20260509142517 15 63 3.2 11.3 0.00 0.00 0.00 80 1002.4
20260509142056 15 154 1.6 11.3 0.00 0.00 0.00 81 1002.4
20260509141533 14 210 4.8 12.9 0.00 0.00 0.00 82 1002.4
20260509141052 14 144 1.6 9.7 0.00 0.00 0.00 83 1002.4
20260509140532 13 183 1.6 9.7 0.00 0.00 0.00 84 1002.6
20260509140047 13 216 0.0 8.0 0.00 0.00 0.00 84 1002.6
20260509135534 13 107 1.6 11.3 0.00 0.00 0.00 84 1002.6
20260509135048 13 212 3.2 14.5 0.00 0.00 0.00 84 1002.6
20260509134527 13 136 1.6 11.3 0.00 0.00 0.00 85 1002.7
20260509134059 13 250 1.6 11.3 0.00 0.00 0.00 87 1002.7
20260509134000 13 157 3.2 11.3 0.00 0.00 0.00 87 1002.7
20260509133517 13 254 4.8 11.3 0.00 0.00 0.00 87 1002.7
20260509133051 12 237 3.2 11.3 0.00 0.00 0.00 87 1002.8
20260509132515 12 254 1.6 9.7 0.00 0.00 0.00 88 1002.9
20260509132052 12 154 0.0 11.3 0.00 0.00 0.00 88 1002.9
20260509131545 12 123 6.4 12.9 0.00 0.00 0.00 89 1003.0
20260509131055 12 252 3.2 16.1 0.00 0.00 0.00 90 1003.1
20260509130535 12 255 6.4 14.5 0.00 0.00 0.00 89 1003.2
20260509130039 12 240 3.2 14.5 0.00 0.00 0.00 90 1003.2
20260509125535 12 273 8.0 14.5 0.00 0.00 0.00 90 1003.3
20260509125016 12 139 1.6 8.0 0.00 0.00 0.00 91 1003.3
20260509124553 12 261 1.6 9.7 0.00 0.00 0.00 92 1003.3
20260509124017 11 247 4.8 11.3 0.00 0.00 0.00 92 1003.3
20260509123553 11 271 1.6 17.7 0.00 0.00 0.00 92 1003.4
20260509123058 11 276 6.4 17.7 0.00 0.00 0.00 93 1003.4
20260509122550 11 250 6.4 14.5 0.00 0.00 0.00 93 1003.4
20260509122032 11 239 3.2 14.5 0.00 0.00 0.00 93 1003.4
20260509121513 11 132 3.2 16.1 0.00 0.00 0.00 94 1003.5
20260509121029 11 250 4.8 16.1 0.00 0.00 0.00 94 1003.5
20260509120503 11 239 1.6 12.9 0.00 0.00 0.00 94 1003.6
20260509120030 11 250 0.0 9.7 0.00 0.00 0.00 94 1003.5
20260509115558 11 257 0.0 6.4 0.00 0.00 0.00 94 1003.6
20260509115018 10 257 1.6 6.4 0.00 0.00 0.00 94 1003.6
20260509114625 10 178 0.0 8.0 0.00 0.00 0.00 94 1003.6
20260509114019 10 240 0.0 12.9 0.00 0.00 0.00 94 1003.7
20260509113554 10 215 1.6 12.9 0.00 0.00 0.00 94 1003.7
20260509113018 10 209 0.0 6.4 0.00 0.00 0.00 94 1003.6
20260509112600 10 209 0.0 6.4 0.00 0.00 0.00 94 1003.7
20260509112015 10 190 0.0 11.3 0.00 0.00 0.00 95 1003.6
20260509111549 10 190 0.0 11.3 0.00 0.00 0.00 95 1003.6
20260509111014 10 225 1.6 6.4 0.00 0.00 0.00 95 1003.6
20260509110547 10 200 0.0 6.4 0.00 0.00 0.00 94 1003.5
20260509110011 10 130 0.0 4.8 0.00 0.00 0.00 94 1003.4
20260509105546 10 126 0.0 6.4 0.00 0.00 0.00 94 1003.3
20260509105010 10 125 0.0 6.4 0.00 0.00 0.00 94 1003.3
20260509104547 10 118 0.0 6.4 0.00 0.00 0.00 95 1003.3
20260509104021 10 234 0.0 6.4 0.00 0.00 0.00 95 1003.4
20260509103540 10 238 0.0 8.0 0.00 0.00 0.00 95 1003.5
20260509103021 10 238 1.6 8.0 0.00 0.00 0.00 94 1003.6
20260509102556 10 246 3.2 11.3 0.00 0.00 0.00 94 1003.5
20260509102021 10 238 4.8 11.3 0.00 0.00 0.00 94 1003.5
20260509101603 10 246 0.0 19.3 0.00 0.00 0.00 94 1003.6
20260509101040 10 233 0.0 9.7 0.00 0.00 0.00 94 1003.7
20260509100554 10 170 0.0 6.4 0.00 0.00 0.00 94 1003.6
20260509100037 10 169 1.6 6.4 0.00 0.00 0.00 94 1003.6
20260509095515 10 261 0.0 6.4 0.00 0.00 0.00 94 1003.6
20260509095036 10 261 0.0 9.7 0.00 0.00 0.00 94 1003.6
20260509094529 10 236 0.0 9.7 0.00 0.00 0.00 94 1003.7
20260509094058 10 259 0.0 8.0 0.00 0.00 0.00 94 1003.8
20260509093519 10 258 1.6 12.9 0.00 0.00 0.00 94 1003.8
20260509093055 10 225 3.2 12.9 0.00 0.00 0.00 94 1003.8
20260509092518 10 245 0.0 6.4 0.00 0.00 0.00 94 1003.8
20260509092054 10 245 1.6 4.8 0.00 0.00 0.00 94 1004.0
20260509091542 10 242 0.0 3.2 0.00 0.00 0.00 94 1003.9
20260509091054 10 242 0.0 4.8 0.00 0.00 0.00 94 1003.9
20260509090537 10 242 0.0 11.3 0.00 0.00 0.00 94 1003.9
20260509090049 10 242 1.6 11.3 0.00 0.00 0.00 94 1004.0
20260509085522 10 263 1.6 8.0 0.00 0.00 0.00 94 1004.0
20260509085045 10 240 0.0 8.0 0.00 0.00 0.00 94 1004.0
20260509084524 10 202 0.0 6.4 0.00 0.00 0.00 94 1004.0
20260509084057 10 136 0.0 6.4 0.00 0.00 0.00 94 1003.9
20260509083537 9 229 1.6 6.4 0.00 0.00 0.00 94 1004.1
20260509083055 9 221 0.0 3.2 0.00 0.00 0.00 94 1004.1
20260509082536 8 219 0.0 1.6 0.00 0.00 0.00 94 1004.0
20260509082054 8 219 0.0 0.0 0.00 0.00 0.00 93 1004.0
20260509081536 8 219 0.0 0.0 0.00 0.00 0.00 93 1003.9
20260509081056 8 227 0.0 0.0 0.00 0.00 0.00 93 1003.9
20260509080536 8 227 0.0 0.0 0.00 0.00 0.00 93 1003.9
20260509080014 8 227 0.0 0.0 0.00 0.00 0.00 93 1004.0
20260509075536 8 227 0.0 0.0 0.00 0.00 0.00 93 1004.0
20260509075014 8 227 0.0 0.0 0.00 0.00 0.00 93 1004.0
20260509074538 8 227 0.0 0.0 0.00 0.00 0.00 93 1004.1
20260509074014 8 227 0.0 0.0 0.00 0.00 0.00 93 1004.1
20260509073555 8 227 0.0 0.0 0.00 0.00 0.00 93 1004.0
20260509073044 8 227 0.0 0.0 0.00 0.00 0.00 93 1004.1
20260509072554 8 227 0.0 0.0 0.00 0.00 0.00 93 1004.2
20260509072038 9 227 0.0 0.0 0.00 0.00 0.00 93 1004.2
20260509071514 9 227 0.0 4.8 0.00 0.00 0.00 93 1004.4
20260509071036 9 227 0.0 4.8 0.00 0.00 0.00 93 1004.4
20260509070520 8 227 0.0 0.0 0.00 0.00 0.00 93 1004.5
20260509070057 8 226 0.0 0.0 0.00 0.00 0.00 93 1004.5
20260509065522 8 226 0.0 0.0 0.00 0.00 0.00 92 1004.6
20260509065101 8 226 0.0 0.0 0.00 0.00 0.00 93 1004.7
20260509064518 8 226 0.0 0.0 0.00 0.00 0.00 93 1004.8
20260509064053 8 226 0.0 0.0 0.00 0.00 0.00 92 1004.8
20260509063521 8 226 0.0 0.0 0.00 0.00 0.00 92 1004.9
20260509063054 8 226 0.0 0.0 0.00 0.00 0.00 92 1005.0
20260509062539 8 226 0.0 0.0 0.00 0.00 0.00 92 1005.1
20260509062055 8 226 0.0 0.0 0.00 0.00 0.00 92 1005.0
20260509061545 8 226 0.0 0.0 0.00 0.00 0.00 92 1005.1
20260509061011 8 226 0.0 0.0 0.00 0.00 0.00 92 1005.2
20260509060549 8 226 0.0 0.0 0.00 0.00 0.00 92 1005.3
20260509060034 8 226 0.0 0.0 0.00 0.00 0.00 91 1005.4
20260509055547 8 226 0.0 0.0 0.00 0.00 0.00 92 1005.4
20260509055032 8 226 0.0 0.0 0.00 0.00 0.00 91 1005.5
20260509054547 8 226 0.0 0.0 0.00 0.00 0.00 91 1005.5
20260509054023 8 226 0.0 0.0 0.00 0.00 0.00 91 1005.4
20260509053555 8 226 0.0 0.0 0.00 0.00 0.00 91 1005.4
20260509053016 9 226 0.0 0.0 0.00 0.00 0.00 91 1005.5
20260509052547 9 226 0.0 0.0 0.00 0.00 0.00 91 1005.5
20260509052032 9 226 0.0 0.0 0.00 0.00 0.00 91 1005.4
20260509051547 9 226 0.0 0.0 0.00 0.00 0.00 91 1005.5
20260509051024 9 226 0.0 0.0 0.00 0.00 0.00 91 1005.5
20260509050558 10 226 0.0 0.0 0.00 0.00 0.00 91 1005.5
20260509050026 10 226 0.0 0.0 0.00 0.00 0.00 90 1005.5
20260509045557 10 226 0.0 0.0 0.00 0.00 0.00 90 1005.5
20260509045022 10 226 0.0 0.0 0.00 0.00 0.00 90 1005.5
20260509044615 10 226 0.0 0.0 0.00 0.00 0.00 90 1005.6
20260509044022 10 226 0.0 0.0 0.00 0.00 0.00 90 1005.6
20260509043558 10 226 0.0 0.0 0.00 0.00 0.00 90 1005.7
20260509043022 10 226 0.0 0.0 0.00 0.00 0.00 90 1005.7
20260509042556 10 226 0.0 0.0 0.00 0.00 0.00 90 1005.8
20260509042038 10 226 0.0 0.0 0.00 0.00 0.00 90 1005.8
20260509041558 11 226 0.0 0.0 0.00 0.00 0.00 90 1005.8
20260509041034 11 226 0.0 6.4 0.00 0.00 0.00 90 1006.0
20260509040518 11 226 0.0 6.4 0.00 0.00 0.00 90 1006.1
20260509040049 10 215 0.0 0.0 0.00 0.00 0.00 89 1006.1
20260509035525 11 215 0.0 0.0 0.00 0.00 0.00 89 1006.1
20260509035002 11 215 0.0 0.0 0.00 0.00 0.00 89 1006.1
20260509034525 11 215 0.0 0.0 0.00 0.00 0.00 88 1006.2
20260509034002 11 215 0.0 0.0 0.00 0.00 0.00 88 1006.3
20260509033543 11 215 0.0 0.0 0.00 0.00 0.00 88 1006.3
20260509033102 11 215 0.0 0.0 0.00 0.00 0.00 88 1006.4
20260509033002 11 215 0.0 0.0 0.00 0.00 0.00 88 1006.4
20260509032541 11 215 0.0 0.0 0.00 0.00 0.00 87 1006.2
20260509032052 11 215 0.0 0.0 0.00 0.00 0.00 87 1006.3
20260509031538 11 215 0.0 0.0 0.00 0.00 0.00 87 1006.3
20260509031054 12 215 0.0 0.0 0.00 0.00 0.00 87 1006.3
20260509030535 12 215 0.0 0.0 0.00 0.00 0.00 87 1006.3
20260509030012 12 215 0.0 0.0 0.00 0.00 0.00 86 1006.4
20260509025546 12 215 0.0 0.0 0.00 0.00 0.00 85 1006.5
20260509025011 12 215 0.0 0.0 0.00 0.00 0.00 85 1006.7
20260509024546 12 215 0.0 0.0 0.00 0.00 0.00 85 1006.7
20260509024013 12 215 0.0 0.0 0.00 0.00 0.00 85 1006.6
20260509023548 12 215 0.0 1.6 0.00 0.00 0.00 85 1006.6
20260509023013 12 215 0.0 1.6 0.00 0.00 0.00 85 1006.6
20260509022546 12 215 0.0 0.0 0.00 0.00 0.00 85 1006.5
20260509022012 11 143 0.0 0.0 0.00 0.00 0.00 85 1006.4
20260509021549 11 143 0.0 0.0 0.00 0.00 0.00 84 1006.3
20260509021027 11 143 0.0 0.0 0.00 0.00 0.00 84 1006.3
20260509020544 11 143 0.0 0.0 0.00 0.00 0.00 84 1006.3
20260509020020 11 143 0.0 0.0 0.00 0.00 0.00 83 1006.2
20260509015558 11 143 0.0 0.0 0.00 0.00 0.00 83 1006.1
20260509015503 11 143 0.0 0.0 0.00 0.00 0.00 83 1006.2